Amritsar, India

3:10 PM IST on March 24, 2017 (GMT +0530)
Amritsar

Weather History for VIAR - February, 2013

Change the Weather History Date:

Sunday, February 3, 2013

  Actual Average Record
Temperature  
Mean Temperature 56 °F -  
Max Temperature 65 °F 65 °F 75 °F (2006)
Min Temperature 46 °F 42 °F 37 °F (1999)
Degree Days  
Heating Degree Days 10    
Growing Degree Days 6 (Base 50)    
Moisture  
Dew Point 55 °F    
Average Humidity 100    
Maximum Humidity 100    
Minimum Humidity 98    
Precipitation  
Precipitation 0.04 in - - ()
Sea Level Pressure  
Sea Level Pressure 30.01 in    
Wind  
Wind Speed 1 mph ()    
Max Wind Speed 7 mph    
Max Gust Speed -    
Visibility 0.8 miles    
Events Fog , Rain    
Averages and records for this station are not official NWS values.
T = Trace of Precipitation, MM = Missing Value Source: Averaged Metar Reports

Daily Weather History Graph

Daily Weather History Graph

Search for Another Location

Airport or City:

Trip Planner

Search our weather history database for the weather conditions in past years. The results will help you decide how hot, cold, wet, or windy it might be!

Date:

Astronomy

Feb. 03, 2013 Rise Set
Actual Time 7:22 AM IST 6:06 PM IST
Civil Twilight 6:56 AM IST 6:32 PM IST
Nautical Twilight 6:27 AM IST 7:01 PM IST
Astronomical Twilight 5:59 AM IST 7:29 PM IST
Moon No Moon Rise 11:25 AM IST (2/3)
Length of Visible Light 11h 35m
Length of Day
10h 44m
Waning Gibbous, 53% of the Moon is Illuminated
Feb 3
Waning Gibbous
Feb 3
Last Quarter
Feb 10
New
Feb 18
First Quarter
Feb 26
Full

Hourly Weather History & Observations

Time (IST) Temp. Dew Point Humidity Pressure Visibility Wind Dir Wind Speed Gust Speed Precip Events Conditions
12:00 AM 53.6 °F 53.6 °F 100% 30.04 in 1.2 mi Calm Calm - N/A   Scattered Clouds
12:30 AM 53.6 °F 53.6 °F 100% 30.04 in 1.2 mi Calm Calm - N/A   Scattered Clouds
2:00 AM 48.2 °F 48.2 °F 100% 30.01 in 0.1 mi Calm Calm - N/A Fog Fog
2:30 AM 48.2 °F 48.2 °F 100% 30.04 in 0.5 mi Calm Calm - N/A Fog Fog
3:00 AM 48.2 °F 48.2 °F 100% 30.01 in 0.5 mi Calm Calm - N/A Fog Fog
3:30 AM 48.2 °F 48.2 °F 100% 30.01 in 0.1 mi Calm Calm - N/A Fog Fog
4:00 AM 48.2 °F 48.2 °F 100% 30.01 in 0.5 mi Calm Calm - N/A Fog Fog
4:30 AM 50.0 °F 50.0 °F 100% 29.98 in 0.5 mi Calm Calm - N/A Fog Fog
5:00 AM 48.2 °F 48.2 °F 100% 29.98 in 0.5 mi Calm Calm - N/A Fog Fog
5:30 AM 49 °F 49 °F 98% 29.98 in 1 mi Calm Calm - -   Mist
5:30 AM 48.2 °F 48.2 °F 100% 29.98 in 0.9 mi Calm Calm - N/A Fog Fog
6:00 AM 48.2 °F 48.2 °F 100% 29.98 in 0.9 mi Calm Calm - N/A   Scattered Clouds
6:30 AM 46.4 °F 46.4 °F 100% 29.98 in 1.2 mi Calm Calm - N/A   Scattered Clouds
7:00 AM 46.4 °F 46.4 °F 100% 29.98 in 1.2 mi Calm Calm - N/A   Scattered Clouds
7:30 AM 48.2 °F 48.2 °F 100% 30.01 in 0.9 mi Calm Calm - N/A   Scattered Clouds
8:00 AM 48.2 °F 48.2 °F 100% 30.01 in 0.7 mi Calm Calm - N/A   Mostly Cloudy
8:30 AM 49 °F 49 °F 100% 30.01 in 1 mi Calm Calm - -   Mist
8:30 AM 50.0 °F 50.0 °F 100% 30.01 in 0.7 mi Calm Calm - N/A   Mostly Cloudy
9:00 AM 51.8 °F 51.8 °F 100% 30.01 in 0.7 mi Calm Calm - N/A   Mostly Cloudy
9:30 AM 53.6 °F 53.6 °F 100% 30.04 in 1.2 mi Calm Calm - N/A   Overcast
10:00 AM 55.4 °F 55.4 °F 100% 30.04 in 1.2 mi Calm Calm - N/A   Overcast
11:30 AM 61 °F 61 °F 100% 30.04 in 1 mi Calm Calm - -   Mist
11:30 AM 60.8 °F 60.8 °F 100% 30.04 in 0.9 mi Calm Calm - N/A   Overcast
12:00 PM 62.6 °F 62.6 °F 100% 30.04 in 0.9 mi Calm Calm - N/A   Overcast
12:30 PM 62.6 °F 62.6 °F 100% 30.04 in 0.7 mi WSW 4.6 mph - N/A   Overcast
1:30 PM 64.4 °F 64.4 °F 100% 30.01 in 1.2 mi Calm Calm - N/A   Overcast
2:30 PM 63 °F 63 °F 98% 30.00 in 1 mi West 6.9 mph - -   Mist
2:30 PM 62.6 °F 62.6 °F 100% 30.01 in 0.9 mi West 6.9 mph - N/A   Overcast
3:00 PM 62.6 °F 62.6 °F 100% 30.01 in 0.9 mi WNW 6.9 mph - N/A   Overcast
3:30 PM 60.8 °F 60.8 °F 100% 30.01 in 0.9 mi WNW 6.9 mph - N/A   Overcast
4:00 PM 60.8 °F 60.8 °F 100% 30.01 in 0.9 mi Calm Calm - N/A   Overcast
4:30 PM 60.8 °F 60.8 °F 100% 29.98 in 0.9 mi Variable 3.5 mph - N/A   Overcast
5:00 PM 60.8 °F 60.8 °F 100% 29.98 in 0.9 mi Variable 3.5 mph - N/A   Overcast
5:30 PM 59 °F 59 °F 100% 29.99 in 1 mi Calm Calm - - Rain Light Rain
5:30 PM 59.0 °F 59.0 °F 100% 29.98 in 0.7 mi Calm Calm - N/A Rain Light Rain
6:00 PM 57.2 °F 57.2 °F 100% 29.98 in 0.7 mi Variable 3.5 mph - N/A Rain Light Rain
6:30 PM 57.2 °F 57.2 °F 100% 29.98 in 0.7 mi Variable 2.3 mph - N/A Rain Light Rain
7:00 PM 57.2 °F 57.2 °F 100% 30.01 in 0.7 mi Variable 1.2 mph - N/A Rain Light Rain
7:30 PM 57.2 °F 57.2 °F 100% 30.01 in 0.7 mi Calm Calm - N/A Rain Light Rain
8:00 PM 57.2 °F 57.2 °F 100% 30.01 in 0.7 mi Variable 2.3 mph - N/A Rain Light Rain
8:30 PM 57 °F 57 °F 99% 30.03 in 1 mi NNE 5.8 mph - - Rain Light Rain
9:30 PM 57.2 °F 57.2 °F 100% 30.04 in 0.9 mi Calm Calm - N/A   Overcast
10:00 PM 55.4 °F 55.4 °F 100% 30.01 in 0.7 mi NE 4.6 mph - N/A Rain Light Rain
10:30 PM 55.4 °F 55.4 °F 100% 30.01 in 0.6 mi Calm Calm - N/A   Overcast
11:00 PM 55.4 °F 55.4 °F 100% 30.01 in 0.6 mi Variable 1.2 mph - N/A   Overcast
11:30 PM 55 °F 55 °F 100% 30.00 in 1 mi ENE 3.5 mph - - Rain Light Drizzle
11:30 PM 55.4 °F 55.4 °F 100% 29.98 in 0.7 mi ENE 3.5 mph - N/A   Overcast